Simultaneous Nadir Overpasses (SNOs) Predictions

Prediction of SNOs between GOES-17 and TERRA Satellite Orbit:

Table of predicted SNOs for the next 14.0 days since TLE Epoch: 3/30/2024
Index Date Time (GOES-17) GOES-17 Lat,Lon TERRA Lat,Lon Distance(km) Time Diff (sec)
1 03/30/2024 16:39:41 -0.01,-104.69 -0.60,-101.76 331.76 80
2 03/31/2024 04:59:49 0.01,-104.68 -0.43,-106.66 225.51 80
3 04/02/2024 04:40:05 0.02,-104.67 0.46,-102.55 241.57 80
4 04/02/2024 17:00:05 -0.02,-104.67 0.53,-107.42 310.94 80
5 04/04/2024 16:45:40 -0.03,-104.67 -0.29,-103.29 156.71 80
6 04/05/2024 05:05:47 0.03,-104.66 -0.73,-108.18 400.13 80
7 04/07/2024 04:46:01 -0.02,-104.66 0.12,-104.06 69.20 80
8 04/07/2024 17:06:01 0.02,-104.66 0.91,-108.92 483.18 80
9 04/09/2024 16:48:54 0.02,-104.66 0.07,-104.79 14.91 80
10 04/11/2024 16:34:28 0.00,-104.66 -0.85,-100.67 453.90 80
11 04/12/2024 04:54:35 -0.00,-104.66 -0.21,-105.56 102.59 80
